Ashtabula, OH

3:34 PM EDT on September 22, 2017 (GMT -0400)
Ashtabula County

Weather History for KHZY - January, 2013

Change the Weather History Date:

Thursday, January 31, 2013

  Actual Average (KGKJ) Record (KGKJ)
Temperature  
Mean Temperature 28 °F -  
Max Temperature 39 °F 31 °F 57 °F (2016)
Min Temperature 17 °F 17 °F -10 °F (1971)
Degree Days  
Heating Degree Days 37    
Moisture  
Dew Point 17 °F    
Average Humidity 75    
Maximum Humidity 86    
Minimum Humidity 59    
Precipitation  
Precipitation 0.07 in - - ()
Sea Level Pressure  
Sea Level Pressure 29.65 in    
Wind  
Wind Speed 19 mph (West)    
Max Wind Speed 30 mph    
Max Gust Speed 39 mph    
Visibility 3 miles    
Events Fog , Rain , Snow    
Averages and records for this station are not official NWS values.
T = Trace of Precipitation, MM = Missing Value Source: NWS Daily Summary

Daily Weather History Graph

Daily Weather History Graph

Search for Another Location

Airport or City:

Trip Planner

Search our weather history database for the weather conditions in past years. The results will help you decide how hot, cold, wet, or windy it might be!

Date:

Astronomy

Jan. 31, 2013 Rise Set
Actual Time 7:35 AM EST 5:37 PM EST
Civil Twilight 7:06 AM EST 6:06 PM EST
Nautical Twilight 6:32 AM EST 6:40 PM EST
Astronomical Twilight 6:00 AM EST 7:12 PM EST
Moon 10:43 PM EST (1/31) 9:29 AM EST (1/31)
Length of Visible Light 11h 00m
Length of Day
10h 01m
Waning Gibbous, 80% of the Moon is Illuminated
Jan 31
Waning Gibbous
Feb 3
Last Quarter
Feb 10
New
Feb 17
First Quarter
Feb 25
Full

Hourly Weather History & Observations

Time (EST) Temp. Windchill Dew Point Humidity Pressure Visibility Wind Dir Wind Speed Gust Speed Precip Events Conditions
12:06 AM 39.2 °F 31.2 °F 33.8 °F 81% 29.24 in 10.0 mi WSW 13.8 mph 24.2 mph 0.00 in   Overcast
12:28 AM 37.4 °F 28.2 °F 32.0 °F 81% 29.23 in 10.0 mi WSW 16.1 mph 21.9 mph 0.00 in Rain Light Rain
12:53 AM 37.0 °F 27.7 °F 30.9 °F 79% 29.26 in 10.0 mi West 16.1 mph 26.5 mph 0.01 in Rain Light Rain
1:02 AM 35.6 °F 25.9 °F 30.2 °F 81% 29.26 in 8.0 mi WSW 16.1 mph 23.0 mph 0.01 in Rain Light Rain
1:17 AM 35.6 °F 26.2 °F 30.2 °F 81% 29.26 in 5.0 mi WSW 15.0 mph 25.3 mph 0.02 in Snow Light Snow
1:31 AM 35.6 °F 25.5 °F 30.2 °F 81% 29.26 in 9.0 mi WSW 17.3 mph 27.6 mph 0.02 in Snow Light Snow
1:53 AM 36.0 °F 23.9 °F 28.9 °F 76% 29.28 in 10.0 mi West 25.3 mph 35.7 mph 0.02 in   Overcast
2:53 AM 33.1 °F 19.8 °F 23.0 °F 66% 29.34 in 10.0 mi West 26.5 mph 39.1 mph 0.00 in   Overcast
3:12 AM 33.8 °F - 21.2 °F 60% 29.35 in 10.0 mi North - - N/A   Overcast
3:53 AM 32.0 °F - 19.9 °F 61% 29.37 in 10.0 mi North - - N/A   Overcast
4:53 AM 30.9 °F - 19.0 °F 61% 29.40 in 9.0 mi North - - 0.00 in Snow Light Snow
5:27 AM 30.2 °F - 21.2 °F 69% 29.41 in 2.0 mi North - - 0.00 in Snow Light Snow
5:32 AM 28.4 °F - 21.2 °F 74% 29.41 in 1.0 mi North - - 0.00 in Snow Light Snow
5:38 AM 28.4 °F - 21.2 °F 74% 29.42 in 2.0 mi North - - 0.00 in Snow Light Snow
5:45 AM 28.4 °F - 21.2 °F 74% 29.42 in 3.0 mi North - - 0.00 in Snow Light Snow
5:47 AM 28.4 °F - 21.2 °F 74% 29.43 in 1.8 mi North - - 0.00 in Snow Light Snow
5:58 AM 28.4 °F - 21.2 °F 74% 29.43 in 2.0 mi North - - 0.00 in Snow Light Snow
6:05 AM 28.4 °F - 21.2 °F 74% 29.43 in 8.0 mi North - - 0.00 in Snow Light Snow
6:33 AM 28.4 °F - 19.4 °F 69% 29.45 in 9.0 mi North - - 0.00 in   Overcast
6:44 AM 28.4 °F - 19.4 °F 69% 29.47 in 2.5 mi North - - 0.00 in Snow Light Snow
6:53 AM 28.9 °F - 19.9 °F 69% 29.49 in 3.0 mi North - - 0.00 in Snow Light Snow
7:45 AM 26.6 °F - 19.4 °F 74% 29.52 in 1.8 mi North - - 0.00 in Snow Light Snow
7:53 AM 26.1 °F - 19.0 °F 75% 29.54 in 1.0 mi North - - 0.00 in Snow Light Snow
8:14 AM 26.6 °F 14.3 °F 17.6 °F 69% 29.53 in - West 16.1 mph 27.6 mph N/A   Unknown
8:53 AM 26.1 °F 10.4 °F 18.0 °F 71% 29.58 in 1.8 mi West 26.5 mph 38.0 mph 0.00 in Snow Light Snow
8:55 AM 26.6 °F 11.4 °F 17.6 °F 69% 29.57 in 2.0 mi WSW 25.3 mph 38.0 mph 0.00 in Snow Light Snow
9:00 AM 24.8 °F 10.0 °F 17.6 °F 74% 29.58 in 1.0 mi West 21.9 mph 33.4 mph 0.00 in Snow Light Snow
9:07 AM 24.8 °F 10.3 °F 17.6 °F 74% 29.58 in 0.5 mi West 20.7 mph 32.2 mph 0.00 in Snow Snow
9:26 AM 24.8 °F 9.3 °F 15.8 °F 69% 29.59 in 1.2 mi West 24.2 mph 35.7 mph 0.00 in Snow Light Snow
9:36 AM 24.8 °F 10.0 °F 17.6 °F 74% 29.59 in 0.8 mi West 21.9 mph 38.0 mph 0.00 in Snow Light Snow
9:45 AM 24.8 °F 9.3 °F 17.6 °F 74% 29.60 in 1.2 mi West 24.2 mph 35.7 mph 0.00 in Snow Light Snow
9:50 AM 24.8 °F 10.7 °F 17.6 °F 74% 29.60 in 2.0 mi West 19.6 mph 35.7 mph 0.00 in Snow Light Snow
9:53 AM 24.1 °F 9.8 °F 17.1 °F 75% 29.62 in 3.0 mi West 19.6 mph 29.9 mph 0.00 in Snow Light Snow
10:18 AM 24.8 °F 12.4 °F 15.8 °F 69% 29.61 in 2.5 mi West 15.0 mph 31.1 mph 0.00 in Snow Light Snow
10:26 AM 24.8 °F 10.3 °F 14.0 °F 64% 29.61 in 6.0 mi West 20.7 mph 34.5 mph 0.00 in Snow Light Snow
10:29 AM 24.8 °F 9.0 °F 14.0 °F 64% 29.62 in 2.0 mi West 25.3 mph 36.8 mph 0.00 in Snow Light Snow
10:31 AM 24.8 °F 8.4 °F 15.8 °F 69% 29.62 in 1.5 mi West 27.6 mph 36.8 mph 0.00 in Snow Light Snow
10:34 AM 24.8 °F 11.5 °F 15.8 °F 69% 29.62 in 1.0 mi West 17.3 mph 36.8 mph 0.00 in Snow Light Snow
10:53 AM 23.0 °F 8.7 °F 17.1 °F 78% 29.65 in 0.8 mi WSW 18.4 mph 33.4 mph 0.00 in Snow Light Snow
10:58 AM 24.8 °F 11.9 °F 17.6 °F 74% 29.63 in 3.0 mi West 16.1 mph 25.3 mph 0.00 in Snow Light Snow
11:08 AM 24.8 °F 7.9 °F 15.8 °F 69% 29.64 in 1.8 mi West 29.9 mph 38.0 mph 0.00 in Snow Light Snow
11:14 AM 21.2 °F 4.5 °F 17.6 °F 86% 29.64 in 0.2 mi West 24.2 mph 38.0 mph 0.00 in Snow Heavy Snow
11:22 AM 21.2 °F 7.8 °F 17.6 °F 86% 29.64 in 0.2 mi West 15.0 mph 31.1 mph 0.00 in Snow Heavy Snow
11:53 AM 23.0 °F 8.7 °F 17.1 °F 78% 29.67 in 1.2 mi WSW 18.4 mph 27.6 mph 0.00 in Snow Light Snow
12:04 PM 23.0 °F 7.6 °F 15.8 °F 74% 29.65 in 1.0 mi West 21.9 mph 31.1 mph 0.00 in Snow Light Snow
12:11 PM 21.2 °F 4.5 °F 17.6 °F 86% 29.65 in 0.2 mi West 24.2 mph 35.7 mph 0.00 in Snow Heavy Snow
12:21 PM 23.0 °F 6.9 °F 15.8 °F 74% 29.65 in 1.2 mi West 24.2 mph 32.2 mph 0.00 in Snow Light Snow
12:25 PM 23.0 °F 7.6 °F 15.8 °F 74% 29.65 in 3.0 mi WSW 21.9 mph 32.2 mph 0.00 in   Haze
12:35 PM 23.0 °F 6.6 °F 15.8 °F 74% 29.65 in 1.8 mi West 25.3 mph 34.5 mph 0.00 in Snow Light Snow
12:42 PM 23.0 °F 6.3 °F 14.0 °F 68% 29.65 in 1.5 mi West 26.5 mph 34.5 mph 0.00 in Snow Light Snow
12:50 PM 24.8 °F 9.0 °F 12.2 °F 59% 29.65 in 3.0 mi West 25.3 mph 34.5 mph 0.00 in Snow Light Snow
12:53 PM 24.1 °F 8.0 °F 12.9 °F 62% 29.68 in 5.0 mi West 25.3 mph 36.8 mph 0.00 in Snow Light Snow
12:59 PM 23.0 °F 5.4 °F 12.2 °F 63% 29.66 in 1.8 mi West 29.9 mph 39.1 mph 0.00 in Snow Light Snow
1:11 PM 24.8 °F 10.0 °F 12.2 °F 59% 29.66 in 3.0 mi West 21.9 mph 33.4 mph 0.00 in Snow Light Snow
1:18 PM 23.0 °F 6.0 °F 12.2 °F 63% 29.66 in 1.8 mi West 27.6 mph 35.7 mph 0.00 in Snow Light Snow
1:24 PM 23.0 °F 5.7 °F 14.0 °F 68% 29.66 in 0.8 mi West 28.8 mph 35.7 mph 0.00 in Snow Light Snow
1:32 PM 23.0 °F 6.6 °F 12.2 °F 63% 29.67 in 1.0 mi West 25.3 mph 39.1 mph 0.00 in Snow Light Snow
1:37 PM 21.2 °F 3.3 °F 14.0 °F 74% 29.67 in 1.0 mi West 28.8 mph 39.1 mph 0.00 in Snow Light Snow
1:47 PM 23.0 °F 6.3 °F 12.2 °F 63% 29.67 in 2.0 mi West 26.5 mph 35.7 mph 0.00 in Snow Light Snow
1:53 PM 23.0 °F 8.0 °F 14.0 °F 68% 29.70 in 2.0 mi West 20.7 mph 32.2 mph 0.00 in Snow Light Snow
2:36 PM 21.2 °F 5.6 °F 12.2 °F 68% 29.69 in 3.0 mi West 20.7 mph 28.8 mph 0.00 in Snow Light Snow
2:53 PM 21.9 °F 6.5 °F 10.9 °F 63% 29.73 in 7.0 mi West 20.7 mph 28.8 mph 0.00 in Snow Light Snow
3:07 PM 21.2 °F 5.6 °F 12.2 °F 68% 29.71 in 1.8 mi West 20.7 mph 34.5 mph 0.00 in Snow Light Snow
3:11 PM 21.2 °F 5.6 °F 14.0 °F 74% 29.71 in 0.8 mi WSW 20.7 mph 32.2 mph 0.00 in Snow Light Snow
3:16 PM 21.2 °F 6.8 °F 12.2 °F 68% 29.71 in 1.0 mi WSW 17.3 mph 25.3 mph 0.00 in Snow Light Snow
3:19 PM 21.2 °F 6.8 °F 14.0 °F 74% 29.71 in 1.2 mi WSW 17.3 mph 25.3 mph 0.00 in Snow Light Snow
3:23 PM 21.2 °F 6.0 °F 14.0 °F 74% 29.71 in 0.8 mi West 19.6 mph 28.8 mph 0.00 in Snow Light Snow
3:53 PM 21.0 °F 7.6 °F 15.1 °F 78% 29.75 in 0.8 mi West 15.0 mph 25.3 mph 0.00 in Snow Light Snow
4:07 PM 21.2 °F 7.8 °F 15.8 °F 80% 29.72 in 1.2 mi WSW 15.0 mph 24.2 mph 0.00 in Snow Light Snow
4:19 PM 21.2 °F 5.2 °F 14.0 °F 74% 29.73 in 2.5 mi WSW 21.9 mph 27.6 mph 0.00 in Snow Light Snow
4:23 PM 21.2 °F 7.3 °F 12.2 °F 68% 29.73 in 4.0 mi West 16.1 mph 27.6 mph 0.00 in Snow Light Snow
4:35 PM 21.2 °F 4.9 °F 12.2 °F 68% 29.73 in 1.0 mi West 23.0 mph 32.2 mph 0.00 in Snow Light Snow
4:43 PM 21.2 °F 7.8 °F 15.8 °F 80% 29.73 in 0.5 mi WSW 15.0 mph 23.0 mph 0.00 in Snow Snow
4:51 PM 21.2 °F 7.8 °F 15.8 °F 80% 29.73 in 0.8 mi West 15.0 mph 23.0 mph 0.00 in Snow Light Snow
4:53 PM 21.0 °F 7.1 °F 15.1 °F 78% 29.77 in 1.0 mi West 16.1 mph 23.0 mph 0.00 in Snow Light Snow
4:57 PM 21.2 °F 6.0 °F 15.8 °F 80% 29.73 in 2.0 mi West 19.6 mph 26.5 mph 0.00 in Snow Light Snow
5:04 PM 21.2 °F 6.8 °F 15.8 °F 80% 29.74 in 1.0 mi WSW 17.3 mph 26.5 mph 0.00 in Snow Light Snow
5:19 PM 21.2 °F 8.3 °F 15.8 °F 80% 29.74 in 1.2 mi WSW 13.8 mph - 0.00 in Snow Light Snow
5:31 PM 21.2 °F 6.0 °F 15.8 °F 80% 29.74 in 0.8 mi West 19.6 mph 33.4 mph 0.00 in Snow Light Snow
5:45 PM 21.2 °F 7.3 °F 15.8 °F 80% 29.74 in 1.2 mi West 16.1 mph 26.5 mph 0.00 in Snow Light Snow
5:53 PM 21.0 °F 7.6 °F 15.1 °F 78% 29.78 in 2.0 mi West 15.0 mph 24.2 mph 0.00 in Snow Light Snow
6:05 PM 21.2 °F 9.5 °F 15.8 °F 80% 29.74 in 8.0 mi West 11.5 mph - 0.00 in   Overcast
6:31 PM 21.2 °F 10.9 °F 15.8 °F 80% 29.75 in 10.0 mi West 9.2 mph - 0.00 in   Overcast
6:46 PM 21.2 °F 9.5 °F 15.8 °F 80% 29.75 in 1.5 mi West 11.5 mph - 0.00 in Snow Light Snow
6:50 PM 21.2 °F 7.3 °F 15.8 °F 80% 29.76 in 0.8 mi West 16.1 mph 23.0 mph 0.01 in Snow Light Snow
6:53 PM 21.9 °F 6.9 °F 16.0 °F 78% 29.79 in 0.8 mi West 19.6 mph 28.8 mph 0.01 in Snow Light Snow
6:56 PM 21.2 °F 7.3 °F 15.8 °F 80% 29.76 in 1.2 mi West 16.1 mph 28.8 mph 0.00 in Snow Light Snow
7:00 PM 21.2 °F 6.8 °F 15.8 °F 80% 29.76 in 3.0 mi West 17.3 mph 28.8 mph 0.00 in Snow Light Snow
7:11 PM 21.2 °F 8.3 °F 15.8 °F 80% 29.76 in 1.8 mi West 13.8 mph - 0.00 in Snow Light Snow
7:20 PM 21.2 °F 7.3 °F 15.8 °F 80% 29.76 in 0.8 mi West 16.1 mph 23.0 mph 0.00 in Snow Light Snow
7:38 PM 21.2 °F 8.3 °F 17.6 °F 86% 29.76 in 0.8 mi WSW 13.8 mph - 0.00 in Snow Light Snow
7:45 PM 21.2 °F 8.3 °F 17.6 °F 86% 29.77 in 0.5 mi West 13.8 mph - 0.00 in Fog , Snow Snow
7:53 PM 21.0 °F 8.1 °F 16.0 °F 81% 29.81 in 0.5 mi West 13.8 mph - 0.00 in Snow Snow
8:07 PM 21.2 °F 8.3 °F 15.8 °F 80% 29.78 in 1.2 mi West 13.8 mph - 0.01 in Snow Light Snow
8:16 PM 21.2 °F 9.5 °F 15.8 °F 80% 29.78 in 1.2 mi West 11.5 mph - 0.01 in Snow Light Snow
8:19 PM 21.2 °F 8.9 °F 15.8 °F 80% 29.78 in 0.8 mi West 12.7 mph - 0.01 in Snow Light Snow
8:35 PM 21.2 °F 8.9 °F 15.8 °F 80% 29.78 in 0.5 mi West 12.7 mph 19.6 mph 0.01 in Snow Snow
8:53 PM 19.9 °F 5.2 °F 16.0 °F 85% 29.83 in 0.5 mi West 17.3 mph - 0.02 in Fog , Snow Snow
9:20 PM 19.4 °F 5.5 °F 15.8 °F 86% 29.80 in 1.0 mi West 15.0 mph - 0.00 in Snow Light Snow
9:22 PM 19.4 °F 5.5 °F 15.8 °F 86% 29.80 in 1.2 mi West 15.0 mph - 0.00 in Snow Light Snow
9:29 PM 19.4 °F 4.5 °F 14.0 °F 80% 29.80 in 3.0 mi West 17.3 mph - 0.00 in Snow Light Snow
9:32 PM 19.4 °F 5.0 °F 14.0 °F 80% 29.80 in 1.8 mi West 16.1 mph - 0.00 in Snow Light Snow
9:35 PM 19.4 °F 2.8 °F 14.0 °F 80% 29.80 in 0.8 mi West 21.9 mph 27.6 mph 0.00 in Snow Light Snow
9:53 PM 19.0 °F 4.5 °F 14.0 °F 81% 29.85 in 0.8 mi West 16.1 mph 27.6 mph 0.00 in Snow Light Snow
9:58 PM 19.4 °F 5.0 °F 12.2 °F 74% 29.81 in 1.2 mi West 16.1 mph 21.9 mph 0.00 in Snow Light Snow
10:06 PM 19.4 °F 5.0 °F 12.2 °F 74% 29.81 in 2.5 mi West 16.1 mph 21.9 mph 0.00 in Snow Light Snow
10:23 PM 19.4 °F 5.5 °F 14.0 °F 80% 29.81 in 1.2 mi WSW 15.0 mph - 0.00 in Snow Light Snow
10:29 PM 19.4 °F 7.2 °F 14.0 °F 80% 29.81 in 2.5 mi WSW 11.5 mph - 0.00 in Snow Light Snow
10:36 PM 19.4 °F 4.5 °F 12.2 °F 74% 29.81 in 4.0 mi WSW 17.3 mph 23.0 mph 0.00 in Snow Light Snow
10:42 PM 19.4 °F 6.0 °F 12.2 °F 74% 29.81 in 2.5 mi West 13.8 mph 23.0 mph 0.00 in Snow Light Snow
11:21 PM 19.4 °F 7.9 °F 10.4 °F 68% 29.81 in 1.5 mi West 10.4 mph - 0.00 in Snow Light Snow
11:24 PM 19.4 °F 8.6 °F 12.2 °F 74% 29.81 in 1.0 mi West 9.2 mph - 0.00 in Snow Light Snow
11:33 PM 17.6 °F 5.0 °F 12.2 °F 79% 29.81 in 0.5 mi West 11.5 mph - 0.00 in Snow Snow
11:43 PM 17.6 °F 4.3 °F 12.2 °F 79% 29.81 in 1.2 mi WSW 12.7 mph - 0.01 in Snow Light Snow
11:50 PM 17.6 °F 4.3 °F 12.2 °F 79% 29.81 in 1.0 mi West 12.7 mph - 0.01 in Snow Light Snow
11:53 PM 18.0 °F 5.4 °F 12.9 °F 81% 29.85 in 0.8 mi West 11.5 mph - 0.01 in Snow Light Snow